Wind_Speed
25 26 27 27 28 28 25 23 23 23 23 23 22 22 22 22 22 22 20 19 19 19 19 19 19 19 18 18 17 17 17 16 16 16 15 15 15 15 14 14 13 13 12 11 11 10 10 10 9
27 28 29 29 30 29 26 24 25 25 25 24 24 24 24 24 23 22 20 20 20 20 20 20 20 20 19 19 18 18 18 18 17 17 16 16 16 15 15 15 14 14 14 13 12 11 11 11 10
28 29 30 31 31 29 27 27 27 27 26 26 26 26 26 25 23 23 21 21 21 21 21 21 21 21 21 20 19 19 19 19 19 18 18 17 17 16 16 16 16 15 15 15 14 13 12 12 12
30 30 32 32 31 29 29 29 28 28 29 28 28 28 27 26 25 24 23 23 22 22 22 22 22 22 21 21 21 21 20 20 20 19 19 19 19 18 18 18 18 17 16 16 15 15 14 13 13
31 32 33 33 31 30 30 31 31 31 30 29 30 30 29 28 27 27 26 25 24 23 23 22 22 22 22 22 22 22 22 22 21 21 20 20 20 20 19 19 19 19 18 18 17 16 16 15 14
33 34 34 33 31 31 32 33 33 32 31 31 31 31 30 29 29 28 28 27 26 25 24 23 23 22 23 23 22 22 22 23 23 23 22 21 21 20 20 20 20 20 20 19 19 18 17 17 17
34 34 35 34 33 33 33 34 34 34 33 33 33 33 31 31 30 30 29 28 28 27 26 25 24 23 23 23 23 23 23 23 24 24 24 23 22 21 21 21 21 21 20 20 20 20 19 18 18
35 36 35 34 35 34 34 34 35 35 35 35 34 34 32 32 32 31 31 30 29 28 27 26 26 25 24 24 24 24 24 24 25 25 25 25 24 23 22 22 22 22 22 22 22 21 21 20 19
36 37 36 35 35 34 35 35 35 36 36 36 35 35 33 33 33 33 32 31 31 30 29 28 27 27 26 26 25 25 25 25 25 26 26 26 25 25 24 24 23 23 24 23 23 23 23 22 21
38 38 36 35 36 36 36 36 36 36 36 37 36 36 35 35 34 34 34 33 32 31 31 30 30 29 28 28 27 27 26 26 26 27 27 27 27 27 26 25 25 25 25 25 25 24 24 24 24
40 39 37 37 37 38 38 37 36 37 37 37 37 37 36 36 35 35 35 34 33 33 33 33 32 31 30 30 29 28 28 28 28 28 29 29 29 29 28 27 27 27 26 26 26 26 26 26 26
41 40 40 39 39 39 38 38 38 38 37 38 38 38 37 37 37 37 36 36 35 35 34 34 34 33 32 32 31 30 30 29 29 29 29 30 30 30 30 30 29 29 28 28 27 27 27 27 27
42 42 41 41 41 40 40 40 39 38 38 38 39 39 38 38 38 38 38 38 37 36 36 35 35 35 34 34 33 32 32 31 31 30 30 30 31 31 31 31 30 30 30 30 29 29 29 29 29
42 43 43 42 42 42 42 42 41 39 40 40 40 40 40 40 40 40 40 39 39 38 37 36 36 36 35 34 34 34 34 33 32 32 31 31 31 32 32 32 31 31 31 31 31 30 30 30 30
42 43 43 42 43 43 44 44 42 41 42 42 42 41 41 41 41 41 41 41 40 40 39 38 38 37 37 35 35 35 35 35 34 33 33 33 33 33 33 33 33 33 33 32 32 32 32 32 32
42 43 43 41 42 43 44 43 41 42 43 42 42 41 42 42 42 42 42 42 41 41 41 40 39 38 38 37 36 36 36 36 36 35 35 35 35 34 35 35 35 34 34 34 33 33 33 33 33
42 43 42 41 42 43 44 43 42 42 43 42 42 42 42 42 42 41 41 41 42 42 42 41 40 40 39 39 38 37 38 38 37 36 36 36 36 36 35 34 35 35 35 35 35 35 35 35 35
42 43 43 42 42 44 44 42 42 42 43 43 43 42 43 42 41 41 41 41 42 42 42 42 42 41 40 40 40 39 39 38 38 38 37 37 37 36 36 36 36 36 36 36 35 35 36 36 36
42 43 43 43 43 44 44 43 42 42 43 43 43 43 43 42 41 42 42 42 42 43 43 42 42 42 41 41 41 40 40 40 39 39 39 38 38 38 38 37 37 37 37 37 37 36 36 36 37
42 43 43 42 43 44 44 44 43 42 42 43 43 42 42 42 42 43 43 43 43 43 43 43 42 42 42 42 42 41 41 41 40 40 39 39 38 38 38 39 38 37 38 38 38 37 38 37 37
42 42 42 42 43 44 44 44 42 42 42 42 42 42 42 42 43 43 44 43 43 44 44 44 43 42 42 42 42 42 42 41 40 40 40 39 39 38 38 39 38 37 37 37 38 38 38 38 38
41 41 41 42 42 43 44 45 42 42 42 42 42 42 42 42 43 43 43 43 44 44 44 44 44 43 43 43 42 42 42 41 41 41 40 40 39 38 38 39 39 39 39 38 38 38 38 38 39
40 39 40 41 42 42 42 45 44 43 43 42 42 43 42 42 43 44 44 44 44 44 44 44 45 44 43 43 42 42 42 42 42 42 41 40 39 38 38 38 39 38 38 38 38 38 38 38 39
37 38 38 40 41 42 41 43 44 43 42 42 43 43 42 42 42 43 44 44 44 45 45 44 45 45 44 43 43 42 42 42 42 42 42 41 40 38 37 38 38 37 37 38 38 38 39 38 38
35 36 36 37 39 41 39 41 43 42 42 42 42 42 43 43 43 43 43 43 43 43 44 44 45 45 44 44 44 43 43 43 42 42 41 41 40 40 38 38 38 38 38 38 38 38 39 39 39
33 33 33 33 35 37 37 39 39 39 40 41 41 42 42 42 42 43 43 43 43 43 44 44 44 45 44 44 44 44 42 42 41 41 41 41 40 40 40 39 38 38 38 39 39 39 39 39 40
31 32 32 32 31 33 34 36 37 38 39 40 41 42 42 42 42 42 43 43 42 43 44 44 44 44 44 44 45 44 43 41 41 41 41 41 40 40 40 40 40 40 39 39 39 39 39 39 39
29 30 30 31 31 30 31 33 35 36 37 39 41 42 42 42 42 42 42 42 42 43 43 43 43 43 43 44 44 44 44 41 41 42 41 41 41 40 40 39 40 40 41 40 40 40 39 39 39
27 29 31 31 31 31 31 32 33 35 36 38 40 41 42 41 42 41 40 41 41 42 42 42 42 42 43 43 43 43 43 42 41 41 42 42 41 40 39 40 40 40 40 41 40 40 40 40 40
26 28 30 31 31 31 32 33 32 34 35 36 37 38 39 40 40 40 40 40 41 42 42 41 41 42 43 43 43 43 43 42 41 41 42 42 42 41 41 41 41 40 41 41 41 41 42 41 41
Wind_Direction
247 245 245 245 245 245 246 246 246 244 243 243 244 244 244 245 245 247 248 246 243 241 240 239 239 241 241 242 242 241 240 240 240 240 240 239 239 238 238 237 237 237 238 238 238 237 234 235 236
247 246 246 246 246 247 246 247 246 244 243 243 243 243 243 245 245 247 248 247 244 242 241 240 241 242 242 241 242 242 242 242 243 243 242 241 240 240 240 240 240 240 241 242 241 242 240 240 240
249 248 247 247 248 249 249 247 246 244 244 243 242 243 244 245 246 247 248 247 245 243 242 242 243 244 244 243 243 244 244 243 244 245 246 244 243 243 242 242 243 243 244 244 244 246 245 243 243
250 250 248 248 249 249 249 249 248 246 245 244 243 243 244 245 246 246 247 247 246 244 243 244 244 245 245 245 244 245 245 245 245 245 246 247 245 246 246 245 245 245 245 246 246 247 247 246 246
251 251 251 250 250 249 249 249 248 247 247 245 246 245 244 245 244 244 246 247 246 245 244 244 245 245 245 246 245 245 245 246 246 245 247 247 247 247 247 246 246 246 246 247 247 248 247 248 248
252 252 252 251 251 250 249 249 249 248 248 246 246 246 244 244 244 245 246 246 246 245 244 245 246 246 246 246 246 246 246 247 247 247 247 248 249 248 247 247 247 247 248 249 248 248 248 249 250
253 253 252 252 251 250 249 249 250 248 248 247 246 246 244 244 245 245 246 246 246 245 245 246 247 247 246 246 247 247 249 249 248 248 248 249 249 248 248 248 249 249 249 249 249 249 249 250 251
254 254 253 252 252 251 250 249 249 248 247 247 246 246 244 244 245 245 245 245 245 245 245 246 247 247 247 247 248 249 250 250 250 249 249 250 249 248 247 248 250 250 251 251 251 251 251 251 252
255 254 254 254 253 252 251 250 249 248 248 247 247 247 247 245 245 245 244 244 244 245 245 246 247 248 249 249 250 250 251 251 251 250 250 250 250 250 248 248 250 251 252 252 252 252 252 253 253
255 256 256 255 254 252 251 250 249 248 248 247 247 247 246 245 245 245 245 244 244 245 246 247 247 249 250 251 251 251 252 252 251 250 250 250 250 250 249 249 250 252 252 252 253 253 254 254 254
255 255 255 253 252 251 251 250 250 248 248 248 247 247 246 245 246 246 245 245 245 245 246 248 248 249 250 251 252 252 252 253 253 251 251 251 252 251 250 250 252 252 253 253 254 254 255 255 254
256 254 254 253 252 251 250 250 249 249 249 248 247 247 246 246 245 245 246 246 246 246 247 248 249 249 250 251 252 253 253 254 253 253 252 252 252 251 250 250 252 253 253 253 254 254 254 255 255
256 254 253 252 251 250 250 249 249 249 250 250 249 248 248 246 245 245 245 246 246 246 247 248 249 250 251 251 252 253 253 253 253 253 253 252 252 252 251 251 252 252 253 253 254 254 256 256 256
257 255 253 252 251 250 250 250 250 250 251 250 250 248 248 248 246 246 246 246 247 247 247 248 249 249 250 251 252 253 253 253 253 254 255 253 252 252 251 252 252 252 253 253 254 254 256 256 257
257 255 254 253 251 250 250 249 250 251 250 250 250 249 249 248 247 247 247 246 247 247 247 247 248 250 250 251 251 253 253 253 253 254 254 254 252 252 252 252 253 253 254 254 254 254 255 257 257
256 255 255 253 252 251 251 250 249 250 250 250 250 249 248 248 248 248 247 247 247 247 247 248 248 249 250 251 251 252 253 253 253 254 254 253 252 253 254 253 254 254 254 254 255 256 256 257 257
256 256 256 254 252 252 251 250 249 250 251 250 249 249 248 248 248 248 248 248 247 247 247 248 248 249 250 250 251 252 253 253 253 253 253 252 251 253 253 254 255 255 255 255 256 257 257 258 258
258 257 256 254 253 253 252 251 249 249 251 251 250 248 248 248 248 248 248 248 247 247 247 248 249 249 250 250 251 251 253 253 253 253 253 252 252 253 254 254 255 255 255 255 256 257 258 259 259
258 257 256 255 254 255 254 251 250 250 250 251 250 248 248 247 247 247 247 248 248 247 247 248 249 250 250 251 251 251 252 253 253 253 252 252 252 254 255 256 257 256 256 256 257 257 258 259 259
257 257 256 255 254 254 254 252 251 250 251 251 250 249 248 247 247 248 248 248 248 248 248 248 248 249 250 251 251 252 252 251 251 252 252 252 253 254 255 257 256 256 256 256 257 258 259 260 260
256 256 256 255 254 254 254 253 251 250 251 251 250 250 248 247 247 248 248 248 249 249 248 247 247 248 250 251 251 251 250 249 249 251 251 252 253 255 256 256 255 254 257 257 257 259 260 260 261
255 255 255 255 254 254 253 254 250 250 251 251 251 251 251 249 248 248 248 249 250 250 249 248 247 248 249 250 251 250 249 248 248 250 251 252 253 254 256 255 254 254 256 258 259 259 261 262 261
254 254 254 254 254 255 254 255 252 252 252 251 251 251 251 251 250 249 249 250 250 249 250 249 248 248 249 250 250 249 248 248 248 249 251 252 252 254 256 255 253 254 256 257 259 259 261 263 263
254 253 253 253 253 254 254 256 255 253 253 253 252 251 251 250 250 250 250 249 249 248 249 249 249 248 248 249 249 248 248 248 248 249 250 250 251 252 254 254 252 253 255 257 258 260 260 263 264
253 252 254 253 254 255 255 256 257 255 253 253 251 251 251 250 249 249 250 249 249 249 248 249 249 248 248 248 248 248 248 248 248 249 249 250 251 251 253 253 252 252 254 257 258 259 261 262 263
254 252 252 255 256 256 254 255 256 255 254 253 251 251 251 250 249 249 250 249 249 249 249 248 248 248 248 248 247 246 247 247 248 248 248 250 250 250 251 253 253 253 254 257 258 260 261 263 263
254 251 251 253 257 256 253 255 254 254 254 254 253 252 252 251 250 250 250 250 250 249 249 249 248 248 248 246 245 245 247 246 246 247 248 248 249 250 251 252 253 253 255 257 259 260 262 263 264
252 251 251 250 253 256 255 255 256 254 253 253 253 253 253 251 250 250 251 250 250 249 249 249 248 247 246 245 245 245 245 245 246 247 248 248 248 249 251 253 253 254 255 257 259 261 262 263 264
250 249 250 252 253 254 256 255 255 255 254 253 253 253 253 252 250 249 250 250 249 248 248 248 247 246 245 244 244 244 245 245 248 248 248 248 249 250 252 254 255 255 256 258 259 261 263 263 265
252 251 251 252 254 254 256 257 255 255 255 255 252 251 251 250 249 248 248 248 248 246 246 247 246 245 244 243 243 244 244 247 249 248 248 248 249 250 253 254 255 256 256 258 260 262 263 263 265
Height
5802 5804 5805 5806 5808 5809 5811 5815 5815 5817 5818 5819 5821 5822 5823 5825 5826 5829 5830 5830 5832 5833 5834 5836 5837 5839 5840 5841 5843 5844 5846 5847 5848 5849 5851 5852 5853 5854 5855 5856 5858 5859 5860 5860 5861 5862 5863 5864 5864
5798 5799 5800 5801 5802 5804 5808 5810 5811 5812 5814 5816 5817 5818 5819 5820 5822 5824 5825 5827 5828 5830 5831 5833 5834 5836 5837 5838 5840 5841 5843 5844 5846 5847 5848 5849 5851 5852 5853 5854 5856 5857 5858 5859 5860 5860 5861 5862 5863
5792 5793 5795 5796 5797 5800 5804 5804 5805 5807 5809 5811 5812 5814 5815 5817 5819 5820 5822 5823 5825 5826 5828 5829 5831 5832 5834 5835 5837 5839 5840 5842 5843 5844 5846 5847 5848 5850 5851 5852 5853 5855 5856 5857 5858 5859 5860 5860 5861
5787 5788 5789 5791 5793 5796 5797 5798 5800 5802 5804 5806 5807 5809 5811 5813 5815 5816 5817 5819 5821 5823 5824 5826 5827 5829 5830 5832 5834 5835 5837 5838 5840 5841 5843 5844 5846 5847 5848 5850 5851 5852 5853 5855 5856 5857 5857 5858 5859
5780 5782 5783 5784 5788 5790 5791 5792 5794 5796 5798 5800 5802 5804 5806 5808 5809 5811 5813 5815 5816 5819 5820 5822 5823 5825 5827 5828 5830 5832 5833 5835 5836 5838 5840 5841 5842 5844 5845 5847 5848 5849 5851 5852 5853 5854 5855 5856 5857
5774 5775 5777 5779 5782 5784 5785 5786 5788 5790 5792 5794 5796 5798 5801 5802 5804 5806 5808 5810 5812 5814 5816 5818 5819 5821 5823 5824 5826 5828 5829 5831 5833 5834 5836 5837 5839 5841 5842 5843 5845 5846 5847 5849 5850 5851 5852 5853 5854
5767 5768 5770 5772 5774 5776 5778 5779 5781 5783 5785 5787 5789 5792 5795 5797 5799 5801 5803 5805 5807 5809 5811 5813 5815 5817 5818 5820 5822 5824 5825 5827 5828 5830 5832 5834 5835 5837 5838 5840 5841 5843 5844 5845 5846 5848 5849 5850 5851
5759 5761 5762 5765 5767 5770 5771 5772 5774 5776 5778 5780 5783 5785 5788 5791 5793 5795 5797 5800 5802 5804 5806 5808 5810 5812 5814 5816 5817 5819 5821 5822 5824 5825 5827 5829 5831 5832 5834 5836 5837 5839 5840 5841 5843 5844 5845 5846 5847
5750 5753 5755 5759 5760 5762 5763 5764 5766 5768 5770 5773 5775 5778 5782 5784 5786 5789 5791 5794 5796 5799 5801 5803 5805 5807 5809 5811 5812 5814 5816 5818 5819 5821 5822 5824 5826 5828 5830 5831 5833 5834 5836 5837 5839 5840 5841 5843 5844
5742 5744 5749 5751 5752 5753 5754 5756 5758 5761 5763 5765 5768 5771 5774 5776 5779 5782 5785 5787 5790 5793 5795 5797 5800 5802 5804 5805 5807 5809 5811 5812 5814 5816 5817 5819 5821 5823 5825 5826 5828 5830 5831 5833 5834 5835 5837 5838 5839
5733 5736 5740 5741 5742 5744 5746 5749 5750 5753 5756 5758 5760 5763 5766 5769 5772 5775 5778 5781 5783 5786 5789 5791 5793 5796 5798 5800 5801 5803 5805 5807 5808 5810 5812 5813 5815 5817 5819 5821 5823 5824 5826 5828 5829 5831 5832 5833 5835
5724 5727 5729 5731 5733 5735 5737 5740 5742 5745 5748 5750 5752 5755 5758 5761 5764 5767 5770 5773 5776 5779 5782 5784 5787 5789 5791 5793 5795 5797 5799 5801 5802 5804 5805 5807 5809 5811 5813 5815 5817 5819 5821 5822 5824 5825 5826 5828 5829
5714 5717 5719 5721 5723 5726 5728 5731 5733 5737 5739 5741 5744 5747 5750 5753 5755 5759 5762 5765 5768 5771 5774 5777 5779 5782 5784 5786 5789 5790 5792 5794 5796 5797 5799 5801 5803 5805 5807 5809 5811 5813 5814 5816 5818 5819 5821 5822 5824
5704 5706 5708 5711 5713 5716 5718 5721 5724 5729 5730 5732 5735 5738 5741 5744 5747 5750 5754 5757 5760 5763 5766 5769 5771 5774 5776 5779 5781 5783 5785 5787 5789 5791 5793 5794 5796 5799 5800 5802 5804 5806 5808 5810 5811 5813 5814 5816 5817
5692 5694 5697 5700 5703 5706 5708 5712 5716 5719 5720 5723 5726 5729 5732 5735 5738 5741 5745 5748 5751 5755 5758 5761 5764 5766 5769 5771 5774 5776 5778 5780 5782 5784 5786 5788 5789 5791 5793 5795 5797 5799 5801 5803 5804 5806 5807 5809 5810
5681 5682 5686 5691 5692 5694 5697 5702 5707 5707 5710 5713 5717 5719 5722 5725 5728 5732 5735 5739 5742 5746 5749 5752 5755 5758 5761 5763 5766 5768 5770 5772 5775 5777 5778 5780 5782 5784 5786 5788 5790 5791 5793 5795 5797 5798 5800 5801 5802
5669 5672 5676 5680 5681 5683 5685 5691 5696 5697 5700 5704 5707 5710 5712 5715 5718 5722 5726 5730 5733 5736 5740 5743 5746 5749 5752 5755 5757 5760 5762 5764 5766 5769 5770 5772 5774 5776 5778 5780 5782 5783 5785 5787 5788 5790 5792 5793 5794
5660 5662 5665 5668 5670 5671 5674 5681 5685 5687 5690 5693 5696 5699 5702 5706 5709 5713 5716 5720 5723 5727 5730 5734 5737 5740 5743 5746 5748 5751 5753 5755 5758 5760 5762 5764 5766 5768 5770 5771 5773 5775 5776 5778 5780 5781 5783 5784 5786
5649 5650 5653 5656 5659 5660 5663 5669 5673 5676 5679 5682 5685 5689 5692 5696 5699 5703 5706 5710 5713 5717 5720 5724 5727 5730 5733 5736 5739 5742 5744 5746 5749 5751 5753 5755 5757 5759 5761 5763 5764 5766 5767 5769 5771 5772 5774 5775 5776
5637 5639 5642 5645 5647 5649 5652 5657 5662 5665 5668 5671 5675 5678 5683 5686 5690 5693 5696 5700 5703 5706 5710 5713 5717 5720 5723 5726 5729 5732 5734 5737 5739 5741 5744 5746 5748 5750 5751 5753 5755 5756 5758 5760 5761 5763 5765 5766 5767
5625 5628 5631 5634 5636 5638 5641 5646 5652 5654 5657 5660 5664 5668 5672 5676 5679 5682 5686 5690 5693 5696 5700 5703 5706 5710 5712 5715 5718 5721 5724 5726 5729 5732 5734 5737 5739 5740 5741 5743 5745 5747 5749 5751 5752 5754 5756 5757 5758
5613 5617 5620 5623 5625 5627 5631 5634 5641 5643 5646 5650 5654 5658 5662 5665 5669 5672 5675 5679 5682 5686 5689 5692 5695 5699 5702 5705 5708 5710 5713 5717 5719 5722 5724 5727 5729 5730 5731 5733 5735 5738 5740 5742 5743 5745 5746 5747 5749
5603 5606 5609 5611 5614 5617 5620 5622 5629 5632 5635 5640 5644 5647 5651 5655 5658 5661 5665 5668 5671 5674 5678 5681 5684 5688 5691 5694 5697 5700 5703 5706 5709 5712 5714 5716 5719 5720 5722 5723 5725 5728 5731 5733 5734 5736 5737 5738 5739
5592 5595 5598 5600 5602 5605 5611 5612 5616 5621 5625 5629 5633 5636 5640 5643 5647 5650 5654 5657 5660 5663 5666 5670 5673 5677 5680 5683 5686 5689 5692 5695 5698 5701 5704 5706 5709 5711 5713 5714 5717 5719 5722 5724 5725 5727 5728 5729 5730
5582 5585 5588 5589 5591 5595 5601 5601 5605 5611 5615 5618 5622 5625 5628 5632 5636 5639 5642 5646 5649 5652 5655 5659 5662 5666 5669 5672 5675 5679 5682 5685 5688 5691 5693 5696 5699 5701 5704 5706 5708 5711 5713 5715 5716 5717 5719 5720 5721
5573 5576 5579 5582 5584 5587 5590 5591 5596 5600 5603 5606 5610 5614 5617 5621 5625 5628 5631 5634 5637 5640 5644 5647 5651 5654 5658 5661 5665 5668 5671 5674 5677 5680 5683 5686 5689 5692 5694 5697 5699 5701 5704 5706 5707 5708 5710 5710 5711
5564 5567 5571 5573 5575 5578 5580 5583 5588 5590 5592 5596 5599 5603 5606 5610 5614 5617 5620 5623 5626 5629 5632 5636 5639 5643 5646 5650 5654 5657 5661 5664 5667 5670 5673 5676 5679 5682 5685 5687 5690 5692 5694 5696 5698 5699 5700 5701 5702
5557 5560 5563 5564 5566 5569 5572 5575 5578 5580 5583 5586 5589 5592 5596 5599 5603 5606 5610 5612 5615 5618 5621 5624 5628 5631 5635 5639 5643 5647 5651 5654 5657 5660 5663 5666 5669 5672 5675 5678 5680 5683 5685 5686 5688 5689 5690 5691 5692
5550 5553 5554 5557 5559 5561 5563 5568 5569 5571 5573 5576 5579 5582 5585 5588 5592 5595 5599 5602 5604 5607 5610 5614 5617 5620 5624 5628 5632 5637 5640 5644 5647 5650 5653 5657 5660 5663 5666 5668 5671 5673 5675 5677 5679 5680 5681 5682 5682
5542 5545 5547 5550 5551 5553 5555 5560 5561 5562 5563 5566 5568 5571 5574 5577 5580 5584 5588 5591 5594 5597 5600 5603 5606 5610 5614 5618 5622 5626 5630 5633 5637 5640 5643 5647 5650 5653 5656 5658 5661 5663 5665 5667 5669 5670 5671 5672 5672